User: anonymous   Login
Location: Melbourne
(37.8170°S, 144.9670°E)
Time: 09:05:33
(UTC+10:00)
Language:

CZ-3 R/B - Orbit

View from above orbital plane
View from above orbital plane
View from above satellite
View from above satellite

Ground track
Ground track

The orbit data is extracted from the following two-line orbital elements,

1 29517U 06048B   16150.50907275  .00058335  00000-0  10830-2 0  9998
2 29517  28.4736  37.7124 4513289 351.6876   2.8230  6.60037148141701
Epoch (UTC): 29 May 2016 12:13:03
Eccentricity: 0.4513289
inclination: 28.4736°
perigee height: 208 km
apogee height: 11045 km
right ascension of ascending node: 37.7124°
argument of perigee: 351.6876°
revolutions per day: 6.60037148
mean anomaly at epoch: 2.8230°
orbit number at epoch: 14170

The dashed part of the orbit path shows where the satellite is in the earth's shadow,  

DLR